When you browse on this site, cookies collect data to enhance your experience and personalize the content and advertising you see.
Visit our Privacy Policy to learn more. By continuing to use the site, you agree to this use of cookies and data.
  • In Belgien
  • Länderverzeichnis
  • Für 7 Tage
  • Wassertemperatur
  • Satellitenkarten
  • Wetterkarte
  • Widgets
  • user-avatar
    Anmelden

    Stündliche Wetter Zhihino

    Heute, 22 März, Freitag

    Zeit Temperatur Niederschläge Wind Luftdruck Luftfeuchtigkeit
    00:00 -2°C° 0 mm 3 m/S 745 mmHg 93%
    01:00 -1°C° 0 mm 3 m/S 744 mmHg 93%
    02:00 -2°C° 0 mm 4 m/S 744 mmHg 93%
    03:00 -2°C° 0.2 mm 4 m/S 742 mmHg 93%
    04:00 -2°C° 0.2 mm 4 m/S 741 mmHg 93%
    05:00 -1°C° 0.2 mm 4 m/S 740 mmHg 93%
    06:00 -1°C° 1.1 mm 4 m/S 739 mmHg 93%
    07:00 -1°C° 1.1 mm 4 m/S 738 mmHg 93%
    08:00 -1°C° 1.1 mm 4 m/S 738 mmHg 93%
    09:00 -1°C° 0.9 mm 5 m/S 738 mmHg 91%
    10:00 -2°C° 0.9 mm 6 m/S 738 mmHg 89%
    11:00 -2°C° 0.9 mm 8 m/S 738 mmHg 87%
    12:00 -2°C° 0.2 mm 8 m/S 739 mmHg 85%
    13:00 -2°C° 0.2 mm 8 m/S 739 mmHg 83%
    14:00 -4°C° 0.2 mm 8 m/S 740 mmHg 80%
    15:00 -3°C° 0 mm 7 m/S 740 mmHg 80%
    16:00 -3°C° 0 mm 7 m/S 741 mmHg 81%
    17:00 -3°C° 0 mm 6 m/S 741 mmHg 81%
    18:00 -3°C° 0 mm 6 m/S 742 mmHg 83%
    19:00 -3°C° 0 mm 6 m/S 742 mmHg 85%
    20:00 -3°C° 0 mm 6 m/S 743 mmHg 87%
    21:00 -3°C° 0 mm 6 m/S 744 mmHg 87%
    22:00 -3°C° 0 mm 6 m/S 744 mmHg 88%
    23:00 -3°C° 0 mm 6 m/S 745 mmHg 89%

    Morgen, 23 März, Samstag

    Zeit Temperatur Niederschläge Wind Luftdruck Luftfeuchtigkeit
    00:00 -2°C° 0 mm 5 m/S 746 mmHg 90%
    01:00 -2°C° 0 mm 5 m/S 747 mmHg 91%
    02:00 -2°C° 0 mm 5 m/S 748 mmHg 91%
    03:00 -2°C° 0 mm 4 m/S 749 mmHg 92%
    04:00 -1°C° 0 mm 3 m/S 749 mmHg 94%
    05:00 -1°C° 0 mm 3 m/S 750 mmHg 95%
    06:00 -1°C° 0 mm 2 m/S 751 mmHg 96%
    07:00 -1°C° 0 mm 2 m/S 751 mmHg 96%
    08:00 -1°C° 0 mm 2 m/S 752 mmHg 97%
    09:00 -1°C° 0 mm 2 m/S 752 mmHg 98%
    10:00 +2°C° 0 mm 1 m/S 752 mmHg 98%
    11:00 +2°C° 0 mm 1 m/S 752 mmHg 98%
    12:00 +2°C° 0 mm 1 m/S 752 mmHg 97%
    13:00 +2°C° 0 mm 1 m/S 751 mmHg 96%
    14:00 +1°C° 0 mm 0 m/S 751 mmHg 96%
    15:00 +2°C° 0 mm 1 m/S 751 mmHg 94%
    16:00 +2°C° 0 mm 1 m/S 750 mmHg 93%
    17:00 +1°C° 0 mm 2 m/S 750 mmHg 92%
    18:00 +1°C° 0 mm 2 m/S 750 mmHg 91%
    19:00 0°C° 0 mm 3 m/S 749 mmHg 90%
    20:00 0°C° 0 mm 3 m/S 749 mmHg 89%
    21:00 -1°C° 0 mm 4 m/S 748 mmHg 88%
    22:00 -2°C° 0 mm 4 m/S 748 mmHg 88%
    23:00 -2°C° 0 mm 5 m/S 747 mmHg 87%

    übermorgen, 24 März, Sonntag

    Zeit Temperatur Niederschläge Wind Luftdruck Luftfeuchtigkeit
    00:00 -2°C° 0 mm 5 m/S 746 mmHg 87%
    01:00 -2°C° 0 mm 5 m/S 745 mmHg 86%
    02:00 -2°C° 0 mm 5 m/S 744 mmHg 86%
    03:00 -2°C° 0.4 mm 5 m/S 744 mmHg 88%
    04:00 -2°C° 0.4 mm 5 m/S 743 mmHg 90%
    05:00 -2°C° 0.4 mm 5 m/S 742 mmHg 91%
    06:00 -2°C° 0.2 mm 4 m/S 742 mmHg 92%
    07:00 -1°C° 0.2 mm 4 m/S 741 mmHg 93%
    08:00 -1°C° 0.2 mm 4 m/S 741 mmHg 94%
    09:00 +1°C° 0 mm 3 m/S 741 mmHg 94%
    10:00 +1°C° 0 mm 3 m/S 741 mmHg 93%
    11:00 +2°C° 0 mm 3 m/S 740 mmHg 93%
    12:00 +2°C° 0.3 mm 3 m/S 740 mmHg 89%
    13:00 +2°C° 0.3 mm 3 m/S 740 mmHg 85%
    14:00 +1°C° 0.3 mm 4 m/S 740 mmHg 81%
    15:00 +1°C° 0.1 mm 3 m/S 740 mmHg 82%
    16:00 +1°C° 0.1 mm 3 m/S 740 mmHg 82%
    17:00 0°C° 0.1 mm 3 m/S 740 mmHg 83%
    18:00 -1°C° 0 mm 3 m/S 740 mmHg 84%
    19:00 -1°C° 0 mm 3 m/S 740 mmHg 85%
    20:00 -2°C° 0 mm 3 m/S 741 mmHg 86%
    21:00 -4°C° 0 mm 3 m/S 741 mmHg 87%
    22:00 -4°C° 0 mm 3 m/S 741 mmHg 88%
    23:00 -4°C° 0 mm 3 m/S 740 mmHg 89%

    25 März, Montag

    Zeit Temperatur Niederschläge Wind Luftdruck Luftfeuchtigkeit
    00:00 -5°C° 0 mm 3 m/S 740 mmHg 89%
    01:00 -5°C° 0 mm 3 m/S 740 mmHg 89%
    02:00 -5°C° 0 mm 3 m/S 740 mmHg 89%
    03:00 -5°C° 0 mm 3 m/S 740 mmHg 90%
    04:00 -5°C° 0 mm 3 m/S 740 mmHg 91%
    05:00 -6°C° 0 mm 3 m/S 740 mmHg 91%
    06:00 -5°C° 0 mm 4 m/S 741 mmHg 88%
    07:00 -4°C° 0 mm 4 m/S 741 mmHg 85%
    08:00 -4°C° 0 mm 5 m/S 741 mmHg 82%
    09:00 -2°C° 0 mm 5 m/S 741 mmHg 80%
    10:00 -2°C° 0 mm 5 m/S 741 mmHg 78%
    11:00 -2°C° 0 mm 5 m/S 741 mmHg 76%
    12:00 -2°C° 0 mm 4 m/S 741 mmHg 75%
    13:00 -1°C° 0 mm 4 m/S 741 mmHg 74%
    14:00 0°C° 0 mm 3 m/S 742 mmHg 74%
    15:00 0°C° 0 mm 3 m/S 741 mmHg 76%
    16:00 -1°C° 0 mm 2 m/S 741 mmHg 77%
    17:00 +1°C° 0 mm 1 m/S 741 mmHg 79%
    18:00 +1°C° 0 mm 1 m/S 741 mmHg 82%
    19:00 0°C° 0 mm 1 m/S 741 mmHg 85%
    20:00 0°C° 0 mm 1 m/S 741 mmHg 87%
    21:00 0°C° 1 mm 1 m/S 741 mmHg 90%
    22:00 0°C° 1 mm 1 m/S 741 mmHg 93%
    23:00 -2°C° 1 mm 2 m/S 741 mmHg 95%

    26 März, Dienstag

    Zeit Temperatur Niederschläge Wind Luftdruck Luftfeuchtigkeit
    00:00 -2°C° 0.7 mm 2 m/S 741 mmHg 94%
    01:00 -4°C° 0.7 mm 3 m/S 741 mmHg 93%
    02:00 -4°C° 0.7 mm 4 m/S 741 mmHg 92%
    03:00 -5°C° 0.1 mm 3 m/S 741 mmHg 91%
    04:00 -5°C° 0.1 mm 3 m/S 742 mmHg 90%
    05:00 -6°C° 0.1 mm 3 m/S 742 mmHg 89%
    06:00 -6°C° 0 mm 3 m/S 742 mmHg 88%
    07:00 -6°C° 0 mm 3 m/S 743 mmHg 87%
    08:00 -6°C° 0 mm 3 m/S 743 mmHg 87%
    09:00 -5°C° 0 mm 3 m/S 744 mmHg 82%
    10:00 -4°C° 0 mm 3 m/S 744 mmHg 78%
    11:00 -4°C° 0 mm 3 m/S 744 mmHg 74%
    12:00 -2°C° 0 mm 3 m/S 744 mmHg 72%
    13:00 -2°C° 0 mm 3 m/S 744 mmHg 70%
    14:00 -1°C° 0 mm 3 m/S 744 mmHg 68%
    15:00 -2°C° 0 mm 3 m/S 743 mmHg 70%
    16:00 -2°C° 0 mm 2 m/S 743 mmHg 72%
    17:00 -3°C° 0 mm 2 m/S 742 mmHg 75%
    18:00 -3°C° 0 mm 2 m/S 742 mmHg 76%
    19:00 -3°C° 0 mm 2 m/S 741 mmHg 77%
    20:00 -4°C° 0 mm 3 m/S 741 mmHg 79%
    21:00 -4°C° 0.3 mm 3 m/S 740 mmHg 83%
    22:00 -4°C° 0.3 mm 4 m/S 740 mmHg 87%
    23:00 -4°C° 0.3 mm 4 m/S 739 mmHg 92%

    27 März, Mittwoch

    Zeit Temperatur Niederschläge Wind Luftdruck Luftfeuchtigkeit
    00:00 -4°C° 0.4 mm 4 m/S 739 mmHg 92%
    01:00 -4°C° 0.4 mm 3 m/S 738 mmHg 92%
    02:00 -4°C° 0.4 mm 3 m/S 738 mmHg 92%
    03:00 -4°C° 0 mm 3 m/S 738 mmHg 92%
    04:00 -5°C° 0 mm 3 m/S 738 mmHg 92%
    05:00 -7°C° 0 mm 4 m/S 738 mmHg 92%
    06:00 -5°C° 0.1 mm 4 m/S 739 mmHg 91%
    07:00 -5°C° 0.1 mm 4 m/S 739 mmHg 89%
    08:00 -5°C° 0.1 mm 4 m/S 739 mmHg 88%
    09:00 -4°C° 0.2 mm 4 m/S 740 mmHg 87%
    10:00 -4°C° 0.2 mm 5 m/S 741 mmHg 87%
    11:00 -2°C° 0.2 mm 5 m/S 742 mmHg 87%
    12:00 -2°C° 0.1 mm 5 m/S 743 mmHg 85%
    13:00 -2°C° 0.1 mm 5 m/S 743 mmHg 83%
    14:00 -2°C° 0.1 mm 5 m/S 744 mmHg 81%
    15:00 -2°C° 0 mm 4 m/S 745 mmHg 82%
    16:00 -3°C° 0 mm 4 m/S 746 mmHg 83%
    17:00 -2°C° 0 mm 3 m/S 747 mmHg 83%
    18:00 -4°C° 0 mm 3 m/S 748 mmHg 85%
    19:00 -5°C° 0 mm 3 m/S 748 mmHg 87%
    20:00 -5°C° 0 mm 3 m/S 749 mmHg 89%
    21:00 -6°C° 0 mm 3 m/S 750 mmHg 89%
    22:00 -6°C° 0 mm 2 m/S 750 mmHg 89%
    23:00 -6°C° 0 mm 2 m/S 751 mmHg 89%
    Mehr zeigen